Time,TemperatureF,DewpointF,PressureIn,WindDirection,WindDirectionDegrees,WindSpeedMPH,WindSpeedGustMPH,Humidity,HourlyPrecipIn,Conditions,Clouds,dailyrainin,SoftwareType,DateUTC
2013-08-29 00:02:00,76.2,74.0,30.02,ENE,64,0.0,-999.0,94,-99.99,,,0.38,weatherlink.com 1.10,2013-08-29 04:02:00,
2013-08-29 00:17:00,76.3,74.0,30.02,ESE,119,5.0,-999.0,92,-99.99,,,0.38,weatherlink.com 1.10,2013-08-29 04:17:00,
2013-08-29 00:32:00,76.1,71.0,30.01,ESE,105,0.0,-999.0,84,-99.99,,,0.02,weatherlink.com 1.10,2013-08-29 04:32:00,
2013-08-29 00:47:00,75.0,70.0,30.00,ESE,119,0.0,-999.0,85,-99.99,,,0.02,weatherlink.com 1.10,2013-08-29 04:47:00,
2013-08-29 01:02:00,74.1,70.0,30.00,ESE,120,0.0,-999.0,88,-99.99,,,0.02,weatherlink.com 1.10,2013-08-29 05:02:00,
2013-08-29 01:17:00,73.8,71.0,29.99,ESE,119,0.0,-999.0,91,-99.99,,,0.02,weatherlink.com 1.10,2013-08-29 05:17:00,
2013-08-29 01:32:00,74.1,72.0,29.99,ESE,118,0.0,-999.0,93,-99.99,,,0.02,weatherlink.com 1.10,2013-08-29 05:32:00,
2013-08-29 01:47:00,74.1,72.0,29.99,ESE,118,0.0,-999.0,93,-99.99,,,0.02,weatherlink.com 1.10,2013-08-29 05:47:00,
2013-08-29 02:02:00,74.0,72.0,29.99,ESE,119,0.0,-999.0,94,-99.99,,,0.02,weatherlink.com 1.10,2013-08-29 06:02:00,
2013-08-29 02:17:00,73.6,72.0,29.98,ESE,119,0.0,-999.0,94,-99.99,,,0.02,weatherlink.com 1.10,2013-08-29 06:17:00,
2013-08-29 02:33:00,73.4,72.0,29.99,ESE,119,0.0,-999.0,94,-99.99,,,0.02,weatherlink.com 1.10,2013-08-29 06:33:00,
2013-08-29 02:48:00,73.6,72.0,29.99,ESE,119,0.0,-999.0,95,-99.99,,,0.02,weatherlink.com 1.10,2013-08-29 06:48:00,
2013-08-29 03:03:00,73.5,72.0,29.98,ESE,118,0.0,-999.0,95,-99.99,,,0.02,weatherlink.com 1.10,2013-08-29 07:03:00,
2013-08-29 03:18:00,73.6,72.0,29.98,NW,323,0.0,-999.0,95,-99.99,,,0.02,weatherlink.com 1.10,2013-08-29 07:18:00,
2013-08-29 03:33:00,73.4,72.0,29.98,NW,323,0.0,-999.0,95,-99.99,,,0.02,weatherlink.com 1.10,2013-08-29 07:33:00,
2013-08-29 03:48:00,73.5,72.0,29.98,NW,323,0.0,-999.0,94,-99.99,,,0.02,weatherlink.com 1.10,2013-08-29 07:48:00,
2013-08-29 04:03:00,73.7,72.0,29.97,NW,318,0.0,-999.0,94,-99.99,,,0.02,weatherlink.com 1.10,2013-08-29 08:03:00,
2013-08-29 04:33:00,73.7,72.0,29.96,NW,318,0.0,-999.0,94,-99.99,,,0.02,weatherlink.com 1.10,2013-08-29 08:33:00,
2013-08-29 04:48:00,73.8,72.0,29.96,NW,318,0.0,-999.0,95,-99.99,,,0.03,weatherlink.com 1.10,2013-08-29 08:48:00,
2013-08-29 05:03:00,74.0,73.0,29.97,NW,318,0.0,-999.0,95,-99.99,,,0.03,weatherlink.com 1.10,2013-08-29 09:03:00,
2013-08-29 05:18:00,74.1,73.0,29.96,NNW,333,0.0,-999.0,95,-99.99,,,0.03,weatherlink.com 1.10,2013-08-29 09:18:00,
2013-08-29 05:33:00,74.2,73.0,29.96,NW,317,1.0,-999.0,95,-99.99,,,0.03,weatherlink.com 1.10,2013-08-29 09:33:00,
2013-08-29 05:48:00,74.1,73.0,29.97,NW,317,0.0,-999.0,95,-99.99,,,0.03,weatherlink.com 1.10,2013-08-29 09:48:00,
2013-08-29 06:03:00,74.0,73.0,29.97,NNW,333,0.0,-999.0,95,-99.99,,,0.03,weatherlink.com 1.10,2013-08-29 10:03:00,
2013-08-29 06:18:00,74.0,73.0,29.97,NNW,333,0.0,-999.0,95,-99.99,,,0.03,weatherlink.com 1.10,2013-08-29 10:18:00,
2013-08-29 06:33:00,74.0,73.0,29.98,NNW,333,0.0,-999.0,96,-99.99,,,0.03,weatherlink.com 1.10,2013-08-29 10:33:00,
2013-08-29 06:48:00,74.0,73.0,29.98,NNW,333,0.0,-999.0,96,-99.99,,,0.03,weatherlink.com 1.10,2013-08-29 10:48:00,
2013-08-29 07:03:00,74.0,73.0,29.98,NE,40,0.0,-999.0,96,-99.99,,,0.03,weatherlink.com 1.10,2013-08-29 11:03:00,
2013-08-29 07:18:00,74.1,73.0,29.98,NE,40,0.0,-999.0,95,-99.99,,,0.03,weatherlink.com 1.10,2013-08-29 11:18:00,
2013-08-29 07:33:00,74.8,73.0,29.99,NE,40,0.0,-999.0,95,-99.99,,,0.03,weatherlink.com 1.10,2013-08-29 11:33:00,
2013-08-29 07:48:00,75.8,74.0,29.99,NNE,26,0.0,-999.0,94,-99.99,,,0.03,weatherlink.com 1.10,2013-08-29 11:48:00,
2013-08-29 08:03:00,77.2,75.0,29.99,ENE,63,0.0,-999.0,91,-99.99,,,0.03,weatherlink.com 1.10,2013-08-29 12:03:00,
2013-08-29 08:18:00,78.5,75.0,30.00,NNE,30,0.0,-999.0,89,-99.99,,,0.03,weatherlink.com 1.10,2013-08-29 12:18:00,
2013-08-29 08:33:00,80.1,76.0,29.99,NE,38,0.0,-999.0,87,-99.99,,,0.03,weatherlink.com 1.10,2013-08-29 12:33:00,
2013-08-29 08:48:00,81.3,76.0,30.00,ENE,58,1.0,-999.0,83,-99.99,,,0.03,weatherlink.com 1.10,2013-08-29 12:48:00,
2013-08-29 09:03:00,83.2,77.0,30.00,ESE,105,0.0,-999.0,81,-99.99,,,0.03,weatherlink.com 1.10,2013-08-29 13:03:00,
2013-08-29 09:18:00,83.8,77.0,30.00,East,97,1.0,-999.0,79,-99.99,,,0.03,weatherlink.com 1.10,2013-08-29 13:18:00,
2013-08-29 09:33:00,84.7,77.0,30.00,NW,322,1.0,-999.0,78,-99.99,,,0.03,weatherlink.com 1.10,2013-08-29 13:33:00,
2013-08-29 09:48:00,85.8,78.0,30.00,SE,145,0.0,-999.0,77,-99.99,,,0.03,weatherlink.com 1.10,2013-08-29 13:48:00,
2013-08-29 10:03:00,86.2,78.0,30.00,ENE,65,0.0,-999.0,76,-99.99,,,0.03,weatherlink.com 1.10,2013-08-29 14:03:00,
2013-08-29 10:18:00,86.7,77.0,30.00,SSE,163,0.0,-999.0,73,-99.99,,,0.03,weatherlink.com 1.10,2013-08-29 14:18:00,
2013-08-29 10:33:00,87.5,77.0,30.00,ESE,121,0.0,-999.0,71,-99.99,,,0.03,weatherlink.com 1.10,2013-08-29 14:33:00,
2013-08-29 10:48:00,88.3,76.0,30.01,SSE,167,0.0,-999.0,67,-99.99,,,0.03,weatherlink.com 1.10,2013-08-29 14:48:00,
2013-08-29 11:03:00,88.9,77.0,30.01,SSE,158,4.0,-999.0,68,-99.99,,,0.03,weatherlink.com 1.10,2013-08-29 15:03:00,
2013-08-29 11:18:00,88.3,76.0,30.01,ESE,111,1.0,-999.0,66,-99.99,,,0.03,weatherlink.com 1.10,2013-08-29 15:18:00,
2013-08-29 11:33:00,89.4,77.0,30.01,ESE,119,1.0,-999.0,66,-99.99,,,0.03,weatherlink.com 1.10,2013-08-29 15:33:00,
2013-08-29 11:48:00,88.5,77.0,30.01,ESE,121,1.0,-999.0,69,-99.99,,,0.03,weatherlink.com 1.10,2013-08-29 15:48:00,
2013-08-29 12:03:00,88.8,77.0,30.01,SE,126,1.0,-999.0,69,-99.99,,,0.03,weatherlink.com 1.10,2013-08-29 16:03:00,
2013-08-29 12:18:00,89.4,77.0,30.01,SSW,203,1.0,-999.0,67,-99.99,,,0.03,weatherlink.com 1.10,2013-08-29 16:18:00,
2013-08-29 12:33:00,89.3,77.0,30.01,ESE,113,6.0,-999.0,68,-99.99,,,0.03,weatherlink.com 1.10,2013-08-29 16:33:00,
2013-08-29 12:48:00,89.6,76.0,30.00,SSE,148,8.0,-999.0,65,-99.99,,,0.03,weatherlink.com 1.10,2013-08-29 16:48:00,
2013-08-29 13:03:00,89.7,76.0,29.99,ESE,109,5.0,-999.0,65,-99.99,,,0.03,weatherlink.com 1.10,2013-08-29 17:03:00,
2013-08-29 13:18:00,88.8,76.0,29.99,East,82,2.0,-999.0,67,-99.99,,,0.03,weatherlink.com 1.10,2013-08-29 17:18:00,
2013-08-29 13:34:00,90.2,76.0,29.98,East,79,4.0,-999.0,64,-99.99,,,0.03,weatherlink.com 1.10,2013-08-29 17:34:00,
2013-08-29 13:49:00,90.9,76.0,29.98,East,94,2.0,-999.0,62,-99.99,,,0.03,weatherlink.com 1.10,2013-08-29 17:49:00,
2013-08-29 14:04:00,89.9,77.0,29.97,East,81,4.0,-999.0,66,-99.99,,,0.03,weatherlink.com 1.10,2013-08-29 18:04:00,
2013-08-29 14:19:00,90.2,76.0,29.96,SSW,209,2.0,-999.0,64,-99.99,,,0.03,weatherlink.com 1.10,2013-08-29 18:19:00,
2013-08-29 14:34:00,90.9,77.0,29.96,SSW,212,3.0,-999.0,63,-99.99,,,0.03,weatherlink.com 1.10,2013-08-29 18:34:00,
2013-08-29 14:49:00,92.1,77.0,29.96,South,187,3.0,-999.0,61,-99.99,,,0.03,weatherlink.com 1.10,2013-08-29 18:49:00,
2013-08-29 15:04:00,90.7,76.0,29.95,ENE,73,2.0,-999.0,63,-99.99,,,0.03,weatherlink.com 1.10,2013-08-29 19:04:00,
2013-08-29 15:19:00,91.1,77.0,29.94,East,79,3.0,-999.0,63,-99.99,,,0.03,weatherlink.com 1.10,2013-08-29 19:19:00,
2013-08-29 15:34:00,90.9,77.0,29.94,ESE,103,1.0,-999.0,64,-99.99,,,0.03,weatherlink.com 1.10,2013-08-29 19:34:00,
2013-08-29 15:49:00,90.8,77.0,29.93,SE,138,2.0,-999.0,64,-99.99,,,0.03,weatherlink.com 1.10,2013-08-29 19:49:00,
2013-08-29 16:04:00,91.3,76.0,29.93,East,88,5.0,-999.0,62,-99.99,,,0.03,weatherlink.com 1.10,2013-08-29 20:04:00,
2013-08-29 16:19:00,90.3,77.0,29.93,South,180,5.0,-999.0,65,-99.99,,,0.03,weatherlink.com 1.10,2013-08-29 20:19:00,
2013-08-29 16:34:00,90.2,77.0,29.93,SE,145,2.0,-999.0,65,-99.99,,,0.03,weatherlink.com 1.10,2013-08-29 20:34:00,
2013-08-29 16:49:00,89.5,77.0,29.93,SE,130,6.0,-999.0,66,-99.99,,,0.03,weatherlink.com 1.10,2013-08-29 20:49:00,
2013-08-29 17:04:00,89.6,77.0,29.94,ESE,115,5.0,-999.0,66,-99.99,,,0.03,weatherlink.com 1.10,2013-08-29 21:04:00,
2013-08-29 17:19:00,89.4,78.0,29.93,East,94,11.0,-999.0,68,-99.99,,,0.03,weatherlink.com 1.10,2013-08-29 21:19:00,
2013-08-29 17:34:00,89.1,78.0,29.93,SSE,161,8.0,-999.0,69,-99.99,,,0.03,weatherlink.com 1.10,2013-08-29 21:34:00,
2013-08-29 17:49:00,88.5,77.0,29.93,SE,127,6.0,-999.0,69,-99.99,,,0.03,weatherlink.com 1.10,2013-08-29 21:49:00,
2013-08-29 18:04:00,88.2,77.0,29.93,South,175,4.0,-999.0,70,-99.99,,,0.03,weatherlink.com 1.10,2013-08-29 22:04:00,
2013-08-29 18:19:00,87.5,77.0,29.93,SSE,152,7.0,-999.0,70,-99.99,,,0.03,weatherlink.com 1.10,2013-08-29 22:19:00,
2013-08-29 18:34:00,86.9,76.0,29.92,South,169,6.0,-999.0,71,-99.99,,,0.03,weatherlink.com 1.10,2013-08-29 22:34:00,
2013-08-29 18:49:00,86.8,77.0,29.92,SE,134,4.0,-999.0,72,-99.99,,,0.03,weatherlink.com 1.10,2013-08-29 22:49:00,
2013-08-29 19:04:00,85.6,76.0,29.92,SE,134,2.0,-999.0,74,-99.99,,,0.03,weatherlink.com 1.10,2013-08-29 23:04:00,
2013-08-29 19:19:00,84.8,77.0,29.92,ENE,77,3.0,-999.0,76,-99.99,,,0.03,weatherlink.com 1.10,2013-08-29 23:19:00,
2013-08-29 19:34:00,84.1,77.0,29.92,SSE,155,1.0,-999.0,78,-99.99,,,0.03,weatherlink.com 1.10,2013-08-29 23:34:00,
2013-08-29 19:49:00,83.7,76.0,29.92,ESE,114,0.0,-999.0,78,-99.99,,,0.03,weatherlink.com 1.10,2013-08-29 23:49:00,
2013-08-29 20:04:00,83.5,76.0,29.93,SE,134,0.0,-999.0,79,-99.99,,,0.03,weatherlink.com 1.10,2013-08-30 00:04:00,
2013-08-29 20:19:00,83.2,76.0,29.94,SSE,159,0.0,-999.0,80,-99.99,,,0.03,weatherlink.com 1.10,2013-08-30 00:19:00,
2013-08-29 20:34:00,82.9,77.0,29.94,SE,144,0.0,-999.0,81,-99.99,,,0.03,weatherlink.com 1.10,2013-08-30 00:34:00,
2013-08-29 20:49:00,82.7,77.0,29.95,SSE,157,0.0,-999.0,82,-99.99,,,0.03,weatherlink.com 1.10,2013-08-30 00:49:00,
2013-08-29 21:04:00,82.5,77.0,29.95,SSE,161,0.0,-999.0,82,-99.99,,,0.03,weatherlink.com 1.10,2013-08-30 01:04:00,
2013-08-29 21:19:00,82.4,77.0,29.96,SE,130,0.0,-999.0,83,-99.99,,,0.03,weatherlink.com 1.10,2013-08-30 01:19:00,
2013-08-29 21:34:00,82.3,77.0,29.96,ESE,117,0.0,-999.0,83,-99.99,,,0.03,weatherlink.com 1.10,2013-08-30 01:34:00,
2013-08-29 21:49:00,82.2,77.0,29.96,SSE,164,0.0,-999.0,84,-99.99,,,0.03,weatherlink.com 1.10,2013-08-30 01:49:00,
2013-08-29 22:04:00,81.9,77.0,29.97,SSE,154,0.0,-999.0,84,-99.99,,,0.03,weatherlink.com 1.10,2013-08-30 02:04:00,
2013-08-29 22:19:00,81.7,77.0,29.97,SSE,155,0.0,-999.0,85,-99.99,,,0.03,weatherlink.com 1.10,2013-08-30 02:19:00,
2013-08-29 22:34:00,81.6,77.0,29.98,SSE,163,0.0,-999.0,85,-99.99,,,0.03,weatherlink.com 1.10,2013-08-30 02:34:00,
2013-08-29 22:49:00,81.6,77.0,29.98,SE,130,0.0,-999.0,85,-99.99,,,0.03,weatherlink.com 1.10,2013-08-30 02:49:00,
2013-08-29 23:04:00,81.6,77.0,29.98,ESE,121,0.0,-999.0,85,-99.99,,,0.03,weatherlink.com 1.10,2013-08-30 03:04:00,
2013-08-29 23:19:00,81.5,77.0,29.97,SSE,159,0.0,-999.0,85,-99.99,,,0.03,weatherlink.com 1.10,2013-08-30 03:19:00,
2013-08-29 23:34:00,81.3,77.0,29.98,SSW,192,0.0,-999.0,85,-99.99,,,0.03,weatherlink.com 1.10,2013-08-30 03:34:00,
2013-08-29 23:49:00,81.1,77.0,29.97,SSW,196,0.0,-999.0,86,-99.99,,,0.03,weatherlink.com 1.10,2013-08-30 03:49:00,